Regional Weather Roundup
Issued by NWS

Home | Current Version | Previous Version | Text Only | Print | Product List | Glossary On
Versions: 1 2 3 4 5 6 7 8 9 10 11 12 13 14 15 16 17 18 19 20 21 22 23 24 25 26 27 28 29 30 31 32 33 34 35 36 37 38 39 40 41 42 43 44 45 46 47 48 49 50
000
ASUS43 KFSD 171402
RWRSD

WEATHER ROUNDUP FOR SOUTH DAKOTA
NATIONAL WEATHER SERVICE SIOUX FALLS SD
900 AM CDT TUE OCT 17 2017

NOTE: "FAIR" INDICATES FEW OR NO CLOUDS BELOW 12,000 FEET WITH NO
SIGNIFICANT WEATHER AND/OR OBSTRUCTIONS TO VISIBILITY.


SDZ001>005-009-010-012>017-171500-
NORTHWEST AND NORTH CENTRAL SOUTH DAKOTA

CITY           SKY/WX    TMP DP  RH WIND       PRES   REMARKS
BUFFALO          N/A     47  24  40 W8        29.93F
FAITH            N/A     47  29  49 SW6       30.00S
MOBRIDGE       CLEAR     45  37  73 S9        29.94F
$$

SDZ012>016-024>037-041>051-057-063-072>074-171500-
SOUTHWEST AND SOUTH CENTRAL SOUTH DAKOTA

CITY           SKY/WX    TMP DP  RH WIND       PRES   REMARKS
RAPID CTY ARPT CLEAR     50  25  37 NW12      30.06S
PIERRE         CLEAR     43  36  76 SW5       30.01S
CUSTER         CLOUDY    37  20  50 NW5       30.16S
PHILIP         CLEAR     44  34  67 W10       30.04R
PINE RIDGE     CLOUDY    34  31  88 W3        30.11S
SPEARFISH      FAIR      50  21  32 CALM      30.08R
WINNER         FAIR      51  34  52 SW10      30.05S
$$

SDZ004>011-016>023-039-040-171500-
NORTHEAST SOUTH DAKOTA

CITY           SKY/WX    TMP DP  RH WIND       PRES   REMARKS
ABERDEEN       SUNNY     39  36  89 S7        29.99S
WATERTOWN      SUNNY     42  39  89 S7        30.01R
BROOKINGS      SUNNY     42  39  89 CALM      30.03S
SISSETON         N/A     54  41  61 CALM      29.96S
$$

SDZ017-020-022-023-036>040-048>070-171500-
SOUTHEAST SOUTH DAKOTA

CITY           SKY/WX    TMP DP  RH WIND       PRES   REMARKS
SIOUX FALLS    MOSUNNY   46  43  89 CALM      30.05R
HURON          SUNNY     43  40  89 MISG      30.03R
CHAMBERLAIN    SUNNY     43  41  95 CALM      30.05R
MITCHELL       SUNNY     45  41  86 CALM      30.05R
YANKTON        SUNNY     45  42  89 NW3       30.06R
$$

ABBREVIATIONS USED IN REMARKS
   TC - TEMPERATURE IN CELSIUS
  WCI - WIND CHILL INDEX
   HX - HEAT INDEX
  VSB - VISIBILITY





USA.gov is the U.S. government's official web portal to all federal, state and local government web resources and services.